{"data":{"norad_id":60297,"intl_designator":"2024-132V","name":"STARLINK-32034","alt_names":[],"object_type":"PAYLOAD","status":"ACTIVE","operator":null,"country":"US","launch_date":"2024-07-28","launch_site_code":"AFETR","launch_vehicle":null,"mission":null,"orbit_class":"UNKNOWN","rcs_meters":null,"size_class":null,"mass_kg":null,"dimensions":null,"purposes":["comms"],"wikipedia_slug":null,"has_3d_model":false,"image_url":null,"decayed_at":null,"tle_current":{"epoch":"2026-05-25T04:12:21.308832Z","epoch_age_seconds":60242,"freshness":"FRESH","line1":"1 60297U 24132V   26145.17524663  .00000890  00000+0  40422-4 0  9990","line2":"2 60297  53.1611  56.9521 0001188  83.9394 276.1742 15.31708673103278","mean_motion":15.31708673,"eccentricity":0.0001188,"inclination_deg":53.1611,"raan_deg":56.9521,"arg_perigee_deg":83.9394,"mean_anomaly_deg":276.1742,"bstar":4.0422e-5,"rev_number":10327,"period_min":94.012655629848,"perigee_km":469.90049807033,"apogee_km":471.52778510157,"semimajor_km":6848.8511415859,"source":"CELESTRAK","updated_at":"2026-05-25T13:38:19.225683Z"}}}